Starlink 35055

operational
NORAD ID: 65524 Int'l Des: 2025-200 Owner: SPXS Country: US Constellation: starlink
LEOCIRCULARRETROGRADESSO

About Starlink 35055

Description loading...

Live Position

Loading 3D Globe...

Upcoming Passes

Altitude History

Altitude vs Time

uPlot chart will show altitude changes over time

Two-Line Element Set

1 65524U 25200E 26102.46827049 .00002553 00000-0 18105-3 0 9995
2 65524 97.6035 173.0968 0000641 156.0863 204.0394 15.05650659 34212
Epoch: Apr 12, 2026 • Age: 5 hours

Current Status

Altitude 562.9 km
Velocity 7.59 km/s
Sub-Earth Point 82.31°N, 6.5°E
Launch Date Sep 6, 2025
Age 0.5 years
Type internet

Technical Details

Classification Payload
Mass 575.00 kg
Dry Mass 530.00 kg
Total Mass 575.00 kg
Length 0.30 m
Diameter 4.10 m
Span 29.00 m
Shape Box + pan
Manufacturer SPXS
Bus Type Starlink V2MO
Phase Status In Orbit
Owner/State SPXS/US

Large Constellations

Loading constellations...